Content
SEND FEEDBACK

Daily
Averages
Monthly
Summary
United States of America

EARTH CITY, MISSOURI


Home > North America > United States > Missouri
Elevation: 476 feet     Latitude: 38 46N     Longitude: 090 30W

WEATHER
 
SELECT A DAY
Number of Records: 203,736;   Date Range: 1/1/95 - 9/22/14
 
SHARE

PRINT THIS DATA

[ ← Previous Day ]
WEATHER ALMANAC - MAY 1, 2013
[ Next Day → ]
[ °C ]   °F
Weather ElementAverageHighLow
Temperature73.8 °F82.9 °F (4:51 pm)59 °F (5:51 am)
Dewpoint54.5 °F59 °F (6:51 pm)48 °F (12:51 pm)
Humidity53 %81 % (5:51 am)31 % (12:51 pm)
Barometer30.02 in30.06 in (9:51 pm)29.94 in (1:51 am)
Wind Speed6.9 mph13.8 mph (4:51 pm)
Wind Gust24.2 mph (2:51 pm)
Weather ElementAverage
Visibility10 mi
Wind DirectionESE (117.4 °)

Weather ElementTotal
Precipitation---
Cooling Degree Days6 (Base 65)
Growing Degree Days21 (Base 50)
Averaged from 23 records on May 1, 2013
WEATHER CONDITIONS BREAKOUT
WIND DIRECTION BREAKOUT
WEATHER BY HOUR - MAY 1, 2013
[ °C ]   °F
Local TimeTemperatureDewpointHumidityBarometerVisibilityWind DirectionWind SpeedGust SpeedPrecipitationEventsConditions
1:51 AM68.0 °F54.0 °F61 %29.94 in10.0 miSouth (170°)5.8 mphClear
2:51 AM66.9 °F55.0 °F66 %29.94 in10.0 miSSE (160°)6.9 mphClear
3:51 AM62.1 °F54.0 °F75 %29.96 in10.0 miSSE (160°)3.5 mphClear
4:51 AM60.1 °F54.0 °F80 %29.98 in10.0 miCalmClear
5:51 AM59.0 °F53.1 °F81 %30.00 in10.0 miCalmPartly Cloudy
6:51 AM61.0 °F54.0 °F78 %30.02 in10.0 miCalmPartly Cloudy
7:51 AM69.1 °F55.0 °F61 %30.03 in10.0 miSouth (170°)6.9 mphPartly Cloudy
8:51 AM73.9 °F54.0 °F50 %30.03 in10.0 miSSE (160°)6.9 mphPartly Cloudy
9:51 AM77.0 °F51.1 °F40 %30.04 in10.0 miSouth (170°)5.8 mphPartly Cloudy
10:51 AM79.0 °F50.0 °F36 %30.04 in10.0 miVariable3.5 mphScattered Clouds
11:51 AM81.0 °F50.0 °F34 %30.04 in10.0 miSSW (200°)9.2 mphScattered Clouds
12:51 PM81.0 °F48.0 °F31 %30.04 in10.0 miCalmScattered Clouds
1:51 PM82.0 °F53.1 °F37 %30.04 in10.0 miSE (140°)10.4 mph20.7 mphMostly Cloudy
2:51 PM81.0 °F54.0 °F39 %30.04 in10.0 miSouth (170°)9.2 mph24.2 mphMostly Cloudy
3:51 PM82.0 °F55.9 °F41 %30.03 in10.0 miESE (120°)10.4 mph17.3 mphMostly Cloudy
4:51 PM82.9 °F55.9 °F39 %30.03 in10.0 miSSE (150°)13.8 mphMostly Cloudy
5:51 PM81.0 °F57.9 °F45 %30.02 in10.0 miESE (120°)13.8 mphMostly Cloudy
6:51 PM80.1 °F59.0 °F48 %30.02 in10.0 miESE (120°)11.5 mphMostly Cloudy
7:51 PM78.1 °F57.9 °F50 %30.03 in10.0 miSE (130°)10.4 mphMostly Cloudy
8:51 PM77.0 °F57.0 °F50 %30.05 in10.0 miSE (140°)11.5 mphMostly Cloudy
9:51 PM75.0 °F55.9 °F51 %30.06 in10.0 miSE (140°)6.9 mphScattered Clouds
10:51 PM73.0 °F57.0 °F57 %30.06 in10.0 miSE (140°)6.9 mphPartly Cloudy
11:51 PM68.0 °F57.9 °F70 %30.06 in10.0 miSE (140°)5.8 mphPartly Cloudy
Hourly data recorded from KSTL, located miles away from Earth City, Missouri







STORIES FROM OUR PARTNERS